Location: Monrovia
(34.7865°N, 86.7139°W)
Time: 20:04:55
(UTC+00:00)

Cosmos 2237 Rocket - Pass Details

Date: 14 July 2020
Orbit: 834 x 850 km, 71.0° (Epoch: 08 August)

Event Time Altitude Azimuth Distance (km) Brightness Sun altitude
Rises 02:56:22 0° 216° (SW) 3,395 5.2 -19.8°
Reaches altitude 10° 02:58:54 10° 222° (SW) 2,465 4.6 -20.1°
Maximum altitude 03:04:20 46° 295° (WNW) 1,125 3.2 -20.9°
Drops below altitude 10° 03:09:48 10° 9° (N) 2,481 5.2 -21.6°
Sets 03:12:22 0° 15° (NNE) 3,420 5.8 -22.0°
